Location: Hanover
(52.3667°N, 9.7167°E)
Time: 04:34:50
(UTC+02:00)

Envisat - Pass Details

Date: 26 September 2024
Orbit: 762 x 764 km, 98.3° (Epoch: 04 October)

Event Time Altitude Azimuth Distance (km) Brightness Sun altitude
Rises 05:48:10 0° 9° (N) 3,240 6.6 -13.8°
Reaches altitude 10° 05:50:40 10° 360° (N) 2,310 5.7 -13.5°
Maximum altitude 05:55:08 32° 298° (WNW) 1,292 3.8 -12.8°
Enters shadow 05:58:18 17° 246° (WSW) 1,871 4.4 -12.3°
